TimeAEST,TemperatureF,Dew PointF,Humidity,Sea Level PressureIn,VisibilityMPH,Wind Direction,Wind SpeedMPH,Gust SpeedMPH,PrecipitationIn,Events,Conditions,WindDirDegrees,DateUTC
12:00 AM,75,67,71,29.93,19,SSE,6.9,,,,Partly Cloudy,160,2011-11-07 14:00:00
12:00 AM,75.2,68.0,78,29.92,6.2,SSE,6.9,-,N/A,,Partly Cloudy,160,2011-11-07 14:00:00
12:30 AM,75.2,66.2,73,29.92,6.2,South,6.9,-,N/A,,Partly Cloudy,180,2011-11-07 14:30:00
1:00 AM,75,67,69,29.92,,South,6.9,,,,,170,2011-11-07 15:00:00
1:00 AM,75.2,66.2,73,29.92,6.2,South,6.9,-,N/A,,Partly Cloudy,170,2011-11-07 15:00:00
1:30 AM,73.4,68.0,83,29.89,6.2,SSE,8.1,-,N/A,,Mostly Cloudy,160,2011-11-07 15:30:00
2:00 AM,75.2,66.2,73,29.89,6.2,SSE,8.1,-,N/A,,Scattered Clouds,150,2011-11-07 16:00:00
2:30 AM,75.2,68.0,78,29.89,6.2,South,9.2,-,N/A,,Partly Cloudy,170,2011-11-07 16:30:00
3:00 AM,75,68,72,29.88,19,South,10.4,,,,Partly Cloudy,190,2011-11-07 17:00:00
3:00 AM,75.2,68.0,78,29.89,6.2,South,10.4,-,N/A,,Partly Cloudy,190,2011-11-07 17:00:00
3:30 AM,75.2,68.0,78,29.89,6.2,South,9.2,-,N/A,,Mostly Cloudy,180,2011-11-07 17:30:00
3:56 AM,73.4,69.8,88,29.89,2.5,SSE,9.2,-,N/A,Rain,Light Rain Showers,160,2011-11-07 17:56:00
4:00 AM,72,69,89,29.89,,SSE,9.2,,,,,150,2011-11-07 18:00:00
4:00 AM,73.4,69.8,88,29.89,3.7,SSE,9.2,-,N/A,Rain,Light Rain Showers,150,2011-11-07 18:00:00
4:15 AM,73.4,69.8,88,29.89,6.2,South,6.9,-,N/A,,Mostly Cloudy,180,2011-11-07 18:15:00
4:30 AM,73.4,69.8,88,29.89,6.2,SSE,6.9,-,N/A,,Scattered Clouds,160,2011-11-07 18:30:00
5:00 AM,73.4,69.8,88,29.89,6.2,South,5.8,-,N/A,,Scattered Clouds,170,2011-11-07 19:00:00
5:30 AM,73.4,69.8,88,29.89,6.2,Calm,Calm,-,N/A,,Scattered Clouds,0,2011-11-07 19:30:00
6:00 AM,72,70,91,29.92,12,Calm,Calm,,,,Partly Cloudy,,2011-11-07 20:00:00
6:00 AM,73.4,69.8,88,29.92,6.2,Calm,Calm,-,N/A,,Scattered Clouds,0,2011-11-07 20:00:00
6:30 AM,73.4,69.8,88,29.92,6.2,SE,5.8,-,N/A,,Mostly Cloudy,130,2011-11-07 20:30:00
6:54 AM,75.2,69.8,83,29.92,3.7,South,1.2,-,N/A,,Mostly Cloudy,170,2011-11-07 20:54:00
7:00 AM,74,70,83,29.95,,South,4.6,,,,,170,2011-11-07 21:00:00
7:00 AM,75.2,69.8,83,29.95,3.1,South,4.6,-,N/A,Rain,Light Rain Showers,170,2011-11-07 21:00:00
7:22 AM,73.4,69.8,88,29.95,6.2,South,8.1,-,N/A,Rain,Light Rain Showers,180,2011-11-07 21:22:00
7:30 AM,75.2,69.8,83,29.95,6.2,SSW,6.9,-,N/A,,Mostly Cloudy,200,2011-11-07 21:30:00
8:00 AM,77.0,69.8,78,29.95,6.2,South,9.2,-,N/A,,Scattered Clouds,170,2011-11-07 22:00:00
8:30 AM,78.8,69.8,74,29.95,6.2,SSW,8.1,-,N/A,,Scattered Clouds,200,2011-11-07 22:30:00
9:00 AM,78,71,73,29.97,16,South,8.1,,,,Partly Cloudy,180,2011-11-07 23:00:00
9:00 AM,78.8,71.6,78,29.95,6.2,South,8.1,-,N/A,,Scattered Clouds,170,2011-11-07 23:00:00
9:30 AM,80.6,71.6,74,29.95,6.2,South,8.1,-,N/A,,Scattered Clouds,180,2011-11-07 23:30:00
10:00 AM,81,70,63,29.97,,South,9.2,,,,,170,2011-11-08 00:00:00
10:00 AM,80.6,69.8,70,29.95,6.2,South,9.2,-,N/A,,Scattered Clouds,170,2011-11-08 00:00:00
10:30 AM,80.6,68.0,65,29.95,6.2,SSE,10.4,-,N/A,,Scattered Clouds,150,2011-11-08 00:30:00
11:00 AM,84.2,62.6,48,29.95,6.2,ESE,12.7,-,N/A,,Scattered Clouds,120,2011-11-08 01:00:00
11:30 AM,86.0,64.4,48,29.92,6.2,SE,11.5,-,N/A,,Scattered Clouds,130,2011-11-08 01:30:00
12:00 PM,85,64,39,29.93,16,SE,12.7,,,,Partly Cloudy,130,2011-11-08 02:00:00
12:00 PM,86.0,64.4,48,29.92,6.2,SE,12.7,-,N/A,,Partly Cloudy,130,2011-11-08 02:00:00
12:30 PM,84.2,64.4,51,29.92,6.2,SE,12.7,-,N/A,,Partly Cloudy,130,2011-11-08 02:30:00
1:00 PM,84,64,41,29.91,,ESE,13.8,,,,,120,2011-11-08 03:00:00
1:00 PM,84.2,64.4,51,29.89,6.2,ESE,13.8,-,N/A,,Scattered Clouds,120,2011-11-08 03:00:00
1:30 PM,84.2,64.4,51,29.89,6.2,SE,13.8,-,N/A,,Scattered Clouds,130,2011-11-08 03:30:00
2:00 PM,86.0,66.2,51,29.89,6.2,ESE,13.8,-,N/A,,Partly Cloudy,120,2011-11-08 04:00:00
2:30 PM,86.0,64.4,48,29.86,6.2,ESE,13.8,-,N/A,,Partly Cloudy,120,2011-11-08 04:30:00
3:00 PM,85,63,38,29.87,19,ESE,15.0,,,,Partly Cloudy,120,2011-11-08 05:00:00
3:00 PM,86.0,62.6,45,29.86,6.2,ESE,15.0,-,N/A,,Partly Cloudy,120,2011-11-08 05:00:00
3:30 PM,84.2,64.4,51,29.86,6.2,SE,17.3,-,N/A,,Partly Cloudy,130,2011-11-08 05:30:00
4:00 PM,83,65,46,29.87,,SE,18.4,,,,,130,2011-11-08 06:00:00
4:00 PM,84.2,66.2,55,29.86,6.2,SE,18.4,-,N/A,,Partly Cloudy,130,2011-11-08 06:00:00
4:30 PM,82.4,66.2,58,29.86,6.2,SE,19.6,-,N/A,,Partly Cloudy,130,2011-11-08 06:30:00
5:00 PM,82.4,64.4,54,29.86,6.2,SE,17.3,-,N/A,,Partly Cloudy,130,2011-11-08 07:00:00
5:30 PM,80.6,64.4,58,29.89,6.2,SE,15.0,-,N/A,,Partly Cloudy,140,2011-11-08 07:30:00
6:00 PM,78.8,64.4,61,29.89,6.2,SSE,12.7,-,N/A,,Partly Cloudy,150,2011-11-08 08:00:00
6:30 PM,78.8,66.2,65,29.89,6.2,SE,12.7,-,N/A,,Partly Cloudy,140,2011-11-08 08:30:00
7:00 PM,78,67,60,29.93,,SE,11.5,,,,,140,2011-11-08 09:00:00
7:00 PM,77.0,66.2,69,29.92,6.2,SE,11.5,-,N/A,,Partly Cloudy,140,2011-11-08 09:00:00
7:30 PM,77.0,68.0,74,29.92,6.2,SE,10.4,-,N/A,,Partly Cloudy,140,2011-11-08 09:30:00
8:00 PM,75.2,68.0,78,29.92,6.2,SSE,8.1,-,N/A,,Partly Cloudy,160,2011-11-08 10:00:00
8:30 PM,75.2,68.0,78,29.92,6.2,South,6.9,-,N/A,,Partly Cloudy,170,2011-11-08 10:30:00
9:00 PM,76,68,69,29.95,19,South,6.9,,,,Partly Cloudy,170,2011-11-08 11:00:00
9:00 PM,75.2,68.0,78,29.95,6.2,South,6.9,-,N/A,,Partly Cloudy,170,2011-11-08 11:00:00
9:30 PM,75.2,68.0,78,29.95,6.2,South,6.9,-,N/A,,Partly Cloudy,170,2011-11-08 11:30:00
10:00 PM,76,68,69,29.96,,South,6.9,,,,,170,2011-11-08 12:00:00
10:00 PM,77.0,68.0,74,29.95,6.2,South,6.9,-,N/A,,Partly Cloudy,170,2011-11-08 12:00:00
10:30 PM,75.2,68.0,78,29.95,6.2,South,8.1,-,N/A,,Mostly Cloudy,170,2011-11-08 12:30:00
10:50 PM,75.2,69.8,83,29.95,3.7,SSE,9.2,-,N/A,Rain,Light Rain Showers,150,2011-11-08 12:50:00
11:00 PM,73.4,69.8,88,29.95,6.2,SSE,9.2,-,N/A,,Mostly Cloudy,150,2011-11-08 13:00:00
11:30 PM,73.4,69.8,88,29.95,6.2,SSE,5.8,-,N/A,,Mostly Cloudy,160,2011-11-08 13:30:00